Time,TemperatureF,DewpointF,PressureIn,WindDirection,WindDirectionDegrees,WindSpeedMPH,WindSpeedGustMPH,Humidity,HourlyPrecipIn,Conditions,Clouds,dailyrainin,SoftwareType,DateUTC
2013-05-12 00:03:00,-999.0,-99.9,-100.00,SSE,151,0.0,0.0,76,0.00,,,0.06,,2013-05-12 04:03:00,
2013-05-12 00:12:00,62.0,54.0,-100.00,SSE,151,0.0,0.0,76,0.00,,,0.06,,2013-05-12 04:12:00,
2013-05-12 00:22:00,61.0,53.0,-100.00,NW,313,0.0,0.0,75,0.00,,,0.06,,2013-05-12 04:22:00,
2013-05-12 00:33:00,61.0,53.0,-100.00,NW,313,0.0,0.0,75,0.00,,,0.06,,2013-05-12 04:33:00,
2013-05-12 00:43:00,61.0,53.0,-100.00,NW,313,0.0,0.0,75,0.00,,,0.06,,2013-05-12 04:43:00,
2013-05-12 00:52:00,62.0,50.0,-100.00,NW,319,5.0,7.0,67,0.00,,,0.06,,2013-05-12 04:52:00,
2013-05-12 01:02:00,61.0,50.0,-100.00,NW,320,0.0,4.0,68,0.00,,,0.06,,2013-05-12 05:02:00,
2013-05-12 01:12:00,61.0,50.0,-100.00,NW,320,0.0,4.0,68,0.00,,,0.06,,2013-05-12 05:12:00,
2013-05-12 01:22:00,61.0,50.0,-100.00,NW,320,0.0,4.0,68,0.00,,,0.06,,2013-05-12 05:22:00,
2013-05-12 01:32:00,61.0,49.0,-100.00,NW,316,8.0,13.0,64,0.00,,,0.06,,2013-05-12 05:32:00,
2013-05-12 01:42:00,60.0,49.0,-100.00,WNW,294,9.0,13.0,66,0.00,,,0.06,,2013-05-12 05:42:00,
2013-05-12 01:51:00,60.0,49.0,-100.00,WNW,294,9.0,13.0,66,0.00,,,0.06,,2013-05-12 05:51:00,
2013-05-12 02:02:00,59.0,49.0,-100.00,NW,322,5.0,8.0,69,0.00,,,0.06,,2013-05-12 06:02:00,
2013-05-12 02:11:00,59.0,49.0,-100.00,NW,322,5.0,8.0,69,0.00,,,0.06,,2013-05-12 06:11:00,
2013-05-12 02:21:00,59.0,48.0,-100.00,NW,316,6.0,11.0,68,0.00,,,0.06,,2013-05-12 06:21:00,
2013-05-12 02:32:00,59.0,48.0,-100.00,NW,316,6.0,11.0,68,0.00,,,0.06,,2013-05-12 06:32:00,
2013-05-12 02:42:00,58.0,47.0,-100.00,NW,319,7.0,11.0,66,0.00,,,0.06,,2013-05-12 06:42:00,
2013-05-12 02:52:00,58.0,47.0,-100.00,NW,319,7.0,11.0,66,0.00,,,0.06,,2013-05-12 06:52:00,
2013-05-12 03:02:00,57.0,46.0,-100.00,NW,326,6.0,8.0,66,0.00,,,0.06,,2013-05-12 07:02:00,
2013-05-12 03:11:00,57.0,46.0,-100.00,NW,326,6.0,8.0,66,0.00,,,0.06,,2013-05-12 07:11:00,
2013-05-12 03:22:00,57.0,46.0,-100.00,NW,326,6.0,8.0,66,0.00,,,0.06,,2013-05-12 07:22:00,
2013-05-12 03:32:00,56.0,45.0,-100.00,NNW,330,3.0,5.0,67,0.00,,,0.06,,2013-05-12 07:32:00,
2013-05-12 03:42:00,55.0,42.0,-100.00,NW,313,7.0,10.0,61,0.00,,,0.06,,2013-05-12 07:42:00,
2013-05-12 03:52:00,55.0,42.0,-100.00,NW,313,7.0,10.0,61,0.00,,,0.06,,2013-05-12 07:52:00,
2013-05-12 04:02:00,55.0,42.0,-100.00,NNW,335,7.0,10.0,60,0.00,,,0.06,,2013-05-12 08:02:00,
2013-05-12 04:11:00,55.0,42.0,-100.00,NNW,335,7.0,10.0,60,0.00,,,0.06,,2013-05-12 08:11:00,
2013-05-12 04:21:00,55.0,42.0,-100.00,NNW,335,7.0,10.0,60,0.00,,,0.06,,2013-05-12 08:21:00,
2013-05-12 04:32:00,55.0,42.0,-100.00,NNW,337,4.0,6.0,62,0.00,,,0.06,,2013-05-12 08:32:00,
2013-05-12 04:42:00,54.0,42.0,-100.00,NNW,330,4.0,6.0,65,0.00,,,0.06,,2013-05-12 08:42:00,
2013-05-12 04:53:00,54.0,42.0,-100.00,NNW,330,4.0,6.0,65,0.00,,,0.06,,2013-05-12 08:53:00,
2013-05-12 05:01:00,54.0,43.0,-100.00,NW,320,6.0,10.0,66,0.00,,,0.06,,2013-05-12 09:01:00,
2013-05-12 05:11:00,54.0,43.0,-100.00,NW,320,6.0,10.0,66,0.00,,,0.06,,2013-05-12 09:11:00,
2013-05-12 05:21:00,54.0,43.0,-100.00,NW,320,6.0,10.0,66,0.00,,,0.06,,2013-05-12 09:21:00,
2013-05-12 05:33:00,53.0,43.0,-100.00,NW,316,4.0,5.0,68,0.00,,,0.06,,2013-05-12 09:33:00,
2013-05-12 05:43:00,53.0,43.0,-100.00,NW,316,4.0,5.0,68,0.00,,,0.06,,2013-05-12 09:43:00,
2013-05-12 05:52:00,53.0,43.0,-100.00,WSW,257,0.0,0.0,70,0.00,,,0.06,,2013-05-12 09:52:00,
2013-05-12 06:03:00,53.0,44.0,-100.00,SE,134,0.0,0.0,71,0.00,,,0.06,,2013-05-12 10:03:00,
2013-05-12 06:12:00,53.0,44.0,-100.00,SE,134,0.0,0.0,71,0.00,,,0.06,,2013-05-12 10:12:00,
2013-05-12 06:23:00,51.0,44.0,-100.00,South,184,0.0,0.0,76,0.00,,,0.06,,2013-05-12 10:23:00,
2013-05-12 06:33:00,51.0,44.0,-100.00,South,184,0.0,0.0,76,0.00,,,0.06,,2013-05-12 10:33:00,
2013-05-12 06:42:00,51.0,45.0,-100.00,NW,309,0.0,0.0,78,0.00,,,0.06,,2013-05-12 10:42:00,
2013-05-12 06:52:00,51.0,45.0,-100.00,NW,309,0.0,0.0,78,0.00,,,0.06,,2013-05-12 10:52:00,
2013-05-12 07:03:00,54.0,45.0,-100.00,WNW,296,0.0,0.0,72,0.00,,,0.06,,2013-05-12 11:03:00,
2013-05-12 07:12:00,54.0,45.0,-100.00,WNW,296,0.0,0.0,72,0.00,,,0.06,,2013-05-12 11:12:00,
2013-05-12 07:22:00,54.0,45.0,-100.00,WNW,296,0.0,0.0,72,0.00,,,0.06,,2013-05-12 11:22:00,
2013-05-12 07:32:00,54.0,45.0,-100.00,NW,315,6.0,10.0,70,0.00,,,0.06,,2013-05-12 11:32:00,
2013-05-12 07:42:00,54.0,45.0,-100.00,NW,315,6.0,10.0,70,0.00,,,0.06,,2013-05-12 11:42:00,
2013-05-12 07:52:00,53.0,43.0,-100.00,NW,312,10.0,15.0,69,0.00,,,0.06,,2013-05-12 11:52:00,
2013-05-12 08:02:00,52.0,40.0,-100.00,NW,318,9.0,14.0,63,0.00,,,0.06,,2013-05-12 12:02:00,
2013-05-12 08:11:00,52.0,40.0,-100.00,NW,318,9.0,14.0,63,0.00,,,0.06,,2013-05-12 12:11:00,
2013-05-12 08:22:00,52.0,40.0,-100.00,NW,318,9.0,14.0,63,0.00,,,0.06,,2013-05-12 12:22:00,
2013-05-12 08:32:00,52.0,37.0,-100.00,NW,315,13.0,19.0,56,0.00,,,0.06,,2013-05-12 12:32:00,
2013-05-12 08:42:00,52.0,35.0,-100.00,NW,326,11.0,14.0,53,0.00,,,0.06,,2013-05-12 12:42:00,
2013-05-12 08:51:00,52.0,35.0,-100.00,NW,326,11.0,14.0,53,0.00,,,0.06,,2013-05-12 12:51:00,
2013-05-12 09:02:00,52.0,32.0,-100.00,NNW,332,9.0,11.0,46,0.00,,,0.06,,2013-05-12 13:02:00,
2013-05-12 09:11:00,52.0,32.0,-100.00,NNW,332,9.0,11.0,46,0.00,,,0.06,,2013-05-12 13:11:00,
2013-05-12 09:21:00,52.0,32.0,-100.00,NNW,332,9.0,11.0,46,0.00,,,0.06,,2013-05-12 13:21:00,
2013-05-12 09:32:00,53.0,33.0,-100.00,NW,320,11.0,16.0,47,0.00,,,0.06,,2013-05-12 13:32:00,
2013-05-12 09:42:00,53.0,33.0,-100.00,NW,320,11.0,16.0,47,0.00,,,0.06,,2013-05-12 13:42:00,
2013-05-12 09:52:00,53.0,32.0,-100.00,NW,315,7.0,12.0,45,0.00,,,0.06,,2013-05-12 13:52:00,
2013-05-12 10:02:00,53.0,32.0,-100.00,NW,315,7.0,12.0,45,0.00,,,0.06,,2013-05-12 14:02:00,
2013-05-12 10:11:00,53.0,31.0,-100.00,NW,323,11.0,14.0,44,0.00,,,0.06,,2013-05-12 14:11:00,
2013-05-12 10:21:00,53.0,31.0,-100.00,NW,323,11.0,14.0,44,0.00,,,0.06,,2013-05-12 14:21:00,
2013-05-12 10:32:00,54.0,32.0,-100.00,NW,305,6.0,10.0,43,0.00,,,0.06,,2013-05-12 14:32:00,
2013-05-12 10:42:00,54.0,32.0,-100.00,NW,305,6.0,10.0,43,0.00,,,0.06,,2013-05-12 14:42:00,
2013-05-12 10:52:00,55.0,35.0,-100.00,NW,309,8.0,13.0,47,0.00,,,0.06,,2013-05-12 14:52:00,
2013-05-12 11:01:00,55.0,35.0,-100.00,NW,309,8.0,13.0,47,0.00,,,0.06,,2013-05-12 15:01:00,
2013-05-12 11:34:00,55.0,32.0,-100.00,WNW,302,6.0,13.0,41,0.00,,,0.05,,2013-05-12 15:34:00,
2013-05-12 11:42:00,55.0,32.0,-100.00,WNW,302,6.0,13.0,41,0.00,,,0.05,,2013-05-12 15:42:00,
2013-05-12 11:52:00,56.0,34.0,-100.00,WNW,289,8.0,18.0,42,0.00,,,0.05,,2013-05-12 15:52:00,
2013-05-12 12:02:00,56.0,34.0,-100.00,WNW,289,8.0,18.0,42,0.00,,,0.05,,2013-05-12 16:02:00,
2013-05-12 12:13:00,56.0,34.0,-100.00,WNW,289,8.0,18.0,42,0.00,,,0.05,,2013-05-12 16:13:00,
2013-05-12 12:23:00,56.0,34.0,-100.00,WNW,289,8.0,18.0,42,0.00,,,0.05,,2013-05-12 16:23:00,
2013-05-12 12:33:00,56.0,31.0,-100.00,NW,311,9.0,15.0,40,0.00,,,0.05,,2013-05-12 16:33:00,
2013-05-12 12:42:00,56.0,31.0,-100.00,NW,311,9.0,15.0,40,0.00,,,0.05,,2013-05-12 16:42:00,
2013-05-12 12:52:00,56.0,31.0,-100.00,NW,313,9.0,11.0,39,0.00,,,0.05,,2013-05-12 16:52:00,
2013-05-12 13:02:00,56.0,31.0,-100.00,NW,313,9.0,11.0,39,0.00,,,0.05,,2013-05-12 17:02:00,
2013-05-12 13:12:00,57.0,36.0,-100.00,NW,308,9.0,16.0,44,0.00,,,0.05,,2013-05-12 17:12:00,
2013-05-12 13:22:00,57.0,36.0,-100.00,NW,308,9.0,16.0,44,0.00,,,0.05,,2013-05-12 17:22:00,
2013-05-12 13:31:00,-999.0,28.0,-100.00,WNW,301,10.0,15.0,33,0.00,,,0.05,,2013-05-12 17:31:00,
2013-05-12 13:32:00,57.0,30.0,-100.00,NW,308,10.0,17.0,35,0.00,,,0.05,,2013-05-12 17:32:00,
2013-05-12 13:42:00,57.0,30.0,-100.00,NW,308,10.0,17.0,35,0.00,,,0.05,,2013-05-12 17:42:00,
2013-05-12 13:52:00,56.0,29.0,-100.00,NW,306,7.0,12.0,35,0.00,,,0.05,,2013-05-12 17:52:00,
2013-05-12 14:01:00,56.0,29.0,-100.00,NW,306,7.0,12.0,35,0.00,,,0.05,,2013-05-12 18:01:00,
2013-05-12 14:12:00,-999.0,28.0,-100.00,WNW,301,10.0,15.0,33,0.00,,,0.05,,2013-05-12 18:12:00,
2013-05-12 14:22:00,-999.0,28.0,-100.00,WNW,301,10.0,15.0,33,0.00,,,0.05,,2013-05-12 18:22:00,
2013-05-12 14:42:00,57.0,28.0,-100.00,NW,306,10.0,19.0,33,0.00,,,0.05,,2013-05-12 18:42:00,
2013-05-12 14:52:00,57.0,29.0,-100.00,WNW,301,9.0,13.0,34,0.00,,,0.04,,2013-05-12 18:52:00,
2013-05-12 15:01:00,58.0,28.0,-100.00,WNW,285,6.0,11.0,31,0.00,,,0.04,,2013-05-12 19:01:00,
2013-05-12 15:11:00,58.0,28.0,-100.00,WNW,285,6.0,11.0,31,0.00,,,0.04,,2013-05-12 19:11:00,
2013-05-12 15:22:00,58.0,28.0,-100.00,WNW,285,6.0,11.0,31,0.00,,,0.04,,2013-05-12 19:22:00,
2013-05-12 15:32:00,59.0,28.0,-100.00,NW,318,9.0,17.0,31,0.00,,,0.04,,2013-05-12 19:32:00,
2013-05-12 15:42:00,59.0,28.0,-100.00,NW,318,9.0,17.0,31,0.00,,,0.04,,2013-05-12 19:42:00,
2013-05-12 15:52:00,58.0,28.0,-100.00,WNW,299,10.0,19.0,31,0.00,,,0.04,,2013-05-12 19:52:00,
2013-05-12 16:02:00,58.0,28.0,-100.00,WNW,299,10.0,19.0,31,0.00,,,0.04,,2013-05-12 20:02:00,
2013-05-12 16:11:00,58.0,27.0,-100.00,NW,322,9.0,13.0,30,0.00,,,0.04,,2013-05-12 20:11:00,
2013-05-12 16:22:00,59.0,27.0,-100.00,NW,304,8.0,11.0,30,0.00,,,0.04,,2013-05-12 20:22:00,
2013-05-12 16:32:00,59.0,27.0,-100.00,NW,304,8.0,11.0,30,0.00,,,0.04,,2013-05-12 20:32:00,
2013-05-12 16:42:00,59.0,27.0,-100.00,NW,304,8.0,11.0,30,0.00,,,0.04,,2013-05-12 20:42:00,
2013-05-12 16:52:00,59.0,29.0,-100.00,NW,311,6.0,12.0,32,0.00,,,0.04,,2013-05-12 20:52:00,
2013-05-12 17:01:00,59.0,29.0,-100.00,NW,306,8.0,12.0,31,0.00,,,0.04,,2013-05-12 21:01:00,
2013-05-12 17:11:00,59.0,29.0,-100.00,NW,306,8.0,12.0,31,0.00,,,0.04,,2013-05-12 21:11:00,
2013-05-12 17:21:00,59.0,29.0,-100.00,NW,306,8.0,12.0,31,0.00,,,0.04,,2013-05-12 21:21:00,
2013-05-12 17:33:00,59.0,29.0,-100.00,NW,308,5.0,12.0,32,0.00,,,0.04,,2013-05-12 21:33:00,
2013-05-12 17:42:00,59.0,29.0,-100.00,NW,308,5.0,12.0,32,0.00,,,0.04,,2013-05-12 21:42:00,
2013-05-12 17:53:00,59.0,28.0,-100.00,WNW,296,6.0,9.0,31,0.00,,,0.04,,2013-05-12 21:53:00,
2013-05-12 18:03:00,57.0,28.0,-100.00,NW,323,15.0,19.0,32,0.00,,,0.04,,2013-05-12 22:03:00,
2013-05-12 18:12:00,57.0,28.0,-100.00,NW,323,15.0,19.0,32,0.00,,,0.04,,2013-05-12 22:12:00,
2013-05-12 18:23:00,57.0,28.0,-100.00,NW,323,15.0,19.0,32,0.00,,,0.04,,2013-05-12 22:23:00,
2013-05-12 18:30:00,57.0,27.0,-100.00,NW,325,9.0,14.0,32,0.00,,,0.03,,2013-05-12 22:30:00,
2013-05-12 18:33:00,58.0,28.0,-100.00,NW,326,10.0,13.0,31,0.00,,,0.04,,2013-05-12 22:33:00,
2013-05-12 18:42:00,58.0,28.0,-100.00,NW,326,10.0,13.0,31,0.00,,,0.04,,2013-05-12 22:42:00,
2013-05-12 18:52:00,57.0,27.0,-100.00,NW,304,8.0,14.0,31,0.00,,,0.04,,2013-05-12 22:52:00,
2013-05-12 19:02:00,57.0,27.0,-100.00,NW,325,9.0,14.0,32,0.00,,,0.03,,2013-05-12 23:02:00,
2013-05-12 19:12:00,57.0,27.0,-100.00,NW,325,9.0,14.0,32,0.00,,,0.03,,2013-05-12 23:12:00,
2013-05-12 19:22:00,57.0,27.0,-100.00,NW,325,9.0,14.0,32,0.00,,,0.03,,2013-05-12 23:22:00,
2013-05-12 19:52:00,56.0,27.0,-100.00,NW,325,12.0,16.0,33,0.00,,,0.00,,2013-05-12 23:52:00,
2013-05-12 20:01:00,55.0,26.0,-100.00,NNW,333,12.0,15.0,33,0.00,,,0.00,,2013-05-13 00:01:00,
2013-05-12 20:11:00,55.0,26.0,-100.00,NNW,333,12.0,15.0,33,0.00,,,0.00,,2013-05-13 00:11:00,
2013-05-12 20:22:00,55.0,26.0,-100.00,NNW,333,12.0,15.0,33,0.00,,,0.00,,2013-05-13 00:22:00,
2013-05-12 20:32:00,54.0,28.0,-100.00,NW,316,6.0,8.0,37,0.00,,,0.00,,2013-05-13 00:32:00,
2013-05-12 20:42:00,54.0,28.0,-100.00,NW,316,6.0,8.0,37,0.00,,,0.00,,2013-05-13 00:42:00,
2013-05-12 20:51:00,53.0,28.0,-100.00,WNW,302,4.0,6.0,38,0.00,,,0.00,,2013-05-13 00:51:00,
2013-05-12 21:01:00,53.0,28.0,-100.00,WNW,302,4.0,6.0,38,0.00,,,0.00,,2013-05-13 01:01:00,
2013-05-12 21:11:00,51.0,30.0,-100.00,NW,318,3.0,5.0,43,0.00,,,0.00,,2013-05-13 01:11:00,
2013-05-12 21:22:00,51.0,29.0,-100.00,NW,323,2.0,4.0,42,0.00,,,0.00,,2013-05-13 01:22:00,
2013-05-12 21:32:00,51.0,29.0,-100.00,NW,323,2.0,4.0,42,0.00,,,0.00,,2013-05-13 01:32:00,
2013-05-12 21:42:00,50.0,29.0,-100.00,WNW,301,2.0,4.0,44,0.00,,,0.00,,2013-05-13 01:42:00,
2013-05-12 21:52:00,50.0,29.0,-100.00,WNW,301,2.0,4.0,44,0.00,,,0.00,,2013-05-13 01:52:00,
2013-05-12 22:02:00,49.0,30.0,-100.00,NNW,332,2.0,3.0,49,0.00,,,0.00,,2013-05-13 02:02:00,
2013-05-12 22:11:00,49.0,30.0,-100.00,NNW,332,2.0,3.0,49,0.00,,,0.00,,2013-05-13 02:11:00,
2013-05-12 22:21:00,49.0,30.0,-100.00,NNW,332,2.0,3.0,49,0.00,,,0.00,,2013-05-13 02:21:00,
2013-05-12 22:32:00,49.0,32.0,-100.00,WSW,258,1.0,3.0,51,0.00,,,0.00,,2013-05-13 02:32:00,
2013-05-12 22:42:00,47.0,31.0,-100.00,South,185,4.0,4.0,54,0.00,,,0.00,,2013-05-13 02:42:00,
2013-05-12 22:52:00,47.0,31.0,-100.00,South,185,4.0,4.0,54,0.00,,,0.00,,2013-05-13 02:52:00,
2013-05-12 23:02:00,48.0,31.0,-100.00,SSE,162,2.0,3.0,53,0.00,,,0.00,,2013-05-13 03:02:00,
2013-05-12 23:11:00,48.0,31.0,-100.00,SSE,162,2.0,3.0,53,0.00,,,0.00,,2013-05-13 03:11:00,
2013-05-12 23:22:00,48.0,31.0,-100.00,SSE,162,2.0,3.0,53,0.00,,,0.00,,2013-05-13 03:22:00,
2013-05-12 23:33:00,47.0,32.0,-100.00,NNE,13,1.0,2.0,54,0.00,,,0.00,,2013-05-13 03:33:00,
2013-05-12 23:42:00,47.0,32.0,-100.00,NNE,13,1.0,2.0,54,0.00,,,0.00,,2013-05-13 03:42:00,
2013-05-12 23:51:00,44.0,32.0,-100.00,NNW,343,2.0,3.0,62,0.00,,,0.00,,2013-05-13 03:51:00,